Current weather by "City, St" or "zip code"  
 

Current Conditions: Philadelphia, Northeast Philadelphia Airport, PA

Fog/Mist


68.0 F

Last Updated on May 21 2022, 3:54 am EDT
Humidity: 100%
Wind Speed: N 5.8 mph
Barometer 29.95 in
Dewpoint: 68.0 F
Visibility: 1.75 mi
Precip: --
Heat Index: NA
Wind Chill: NA
Current conditions at:

Philadelphia, Northeast Philadelphia Airport, PA (KPNE)

Lat: 40.07889 Lon: 75.01361

Local Radar Image active severe weather and emergency alerts image image weather storm and storm spotter reports image weather observation monitoring service image
Local
Radar
Active
Alerts
Storm Reports Obs
Monitoring

Sign-up For Email & Text Message Weather Alert Notification Services



Advertise Here

Observation History for Philadelphia, Northeast Philadelphia Airport, PA


Time Wind
(mph)
Vis
(mi)
Weather Precip (in) Temperature (F) Relative
Humidity
Wind
Chill
(F)
Heat
Index
(F)
Pressure
Air Dwpt altimeter
(in)
sea level
(mb)
Rmks
3:54 am EDT N 5.8 1.75 Fog/Mist -- 68.0 68.0 100% NA NA 29.95 1014.1
2:54 am EDT NE 4.6 4.00 Fog/Mist -- 68.0 68.0 100% NA NA 29.93 1013.2
1:54 am EDT E 4.6 4.00 Fog/Mist -- 68.0 68.0 100% NA NA 29.92 1013.0
12:54 am EDT E 4.6 8.00 Fair -- 69.0 69.1 100% NA NA 29.93 1013.3
11:54 pm EDT E 6.9 7.00 Overcast -- 69.0 69.1 100% NA NA 29.92 1013.1
10:54 pm EDT E 4.6 9.00 Mostly Cloudy -- 70.0 70.0 100% NA NA 29.93 1013.2
9:54 pm EDT E 8.1 10.00 Overcast -- 70.0 70.0 100% NA NA 29.92 1013.2
8:54 pm EDT NE 5.8 10.00 Fair -- 70.0 69.1 97% NA NA 29.91 1012.7
7:54 pm EDT NE 5.8 10.00 Fair -- 70.0 69.1 97% NA NA 29.90 1012.4
5:54 pm EDT E 6.9 10.00 Fair -- 72.0 71.1 97% NA NA 29.89 1012.0
4:54 pm EDT N 9.2 10.00 Thunderstorm 00.15 75.0 73.9 96% NA NA 29.89 1012.2
3:54 pm EDT N 0.0 10.00 A Few Clouds 00.02 78.0 72.0 82% NA NA 29.89 1012.0
2:54 pm EDT N 0.0 6.00 Thunderstorm Light Rain -- 76.0 66.9 74% NA NA 29.91 1012.8
11:54 am EDT SE 6.9 10.00 Fair -- 79.0 69.1 72% NA NA 29.94 1013.8
10:54 am EDT SE 3.5 10.00 A Few Clouds -- 75.0 66.9 76% NA NA 29.96 1014.5
9:54 am EDT 3.5 10.00 Mostly Cloudy -- 70.0 64.0 82% NA NA 29.95 1014.3
8:54 am EDT E 5.8 9.00 Fair -- 65.0 64.0 97% NA NA 29.95 1014.2
7:54 am EDT NE 5.8 7.00 Fair -- 62.0 62.1 100% 62 NA 29.95 1014.1
5:54 am EDT NE 4.6 2.50 Fog/Mist -- 58.0 57.9 100% 58 NA 29.90 1012.4
4:54 am EDT N 0.0 2.50 Fog/Mist -- 58.0 57.9 100% NA NA 29.87 1011.3

Regional Weather Observation


Philadelphia - Wings Field Airport, PA (KLOM)

Fog
66.0 F

Doylestown, Doylestown Airport, PA (KDYL)

Fog/Mist
65.0 F

Pennridge Airport, PA (KCKZ)

Fog
64.0 F

Quakertown Airport, PA (KUKT)

Fog
64.0 F

Pottstown, Pottstown Limerick Airport, PA (KPTW)

Fog
64.0 F

Allentown Queen City Municipal Airport, PA (KXLL)

Fog
64.0 F

Advertise Here


Advertise Here